Location: Newark
(34.5992°S, 58.3747°W)
Time: 23:17:36
(UTC+00:00)

N. Korean satellite - Pass Details

Date: 15 December 2019
Orbit: 454 x 507 km, 97.2° (Epoch: 23 January)

Event Time Altitude Azimuth Distance (km) Brightness Sun altitude
Rises 07:57:26 0° 58° (ENE) 2,475 10.5 -7.3°
Reaches altitude 10° 08:00:44 10° 93° (E) 1,620 10.3 -6.8°
Maximum altitude 08:01:50 11° 112° (ESE) 1,551 10.7 -6.6°
Drops below altitude 10° 08:02:56 10° 130° (SE) 1,633 11.0 -6.4°
Sets 08:06:18 0° 165° (SSE) 2,534 11.0 -5.8°
